STARLINK-11260 [DTC]

Last updated on Fri Oct 04 2024 00:02:04 GMT+0000 (Coordinated Universal Time)

1 60997U 24158H 24277.58334491 -.00039081 11617-4 -87737-4 0 9999 2 60997 53.1459 332.8339 0001137 55.0334 230.5334 15.95299947 5682
UTC large
Height (km)
Speed (km/s)
/
Latitude / Longitude
Inclination (degrees)
Orbital Period (minutes)
Azimuth
Elevation
Range (km)
Doppler Factor

Next 0 passes for location: London (51.5072 / 0.1276)

Sorry there are no passes over London.